Dewpoint
26 26 28 30 29 29 31 30 32 23 21 20 23 25 29 33 38 37 34 31 31 32 33 34 35 36 36 36 35 35 35 35 35 36 37 37 37 37 37 36 36 36 36 36
30 27 27 30 28 29 29 29 27 26 26 26 26 28 31 35 38 37 32 30 29 30 31 34 35 36 36 36 36 35 34 34 34 35 35 36 36 37 37 37 36 37 37 38
24 26 26 27 28 28 29 29 29 28 27 28 27 30 32 38 39 36 32 30 30 29 30 33 34 35 35 35 36 36 35 34 34 34 34 35 35 36 36 35 35 35 35 34
26 26 23 28 30 29 28 28 29 28 28 28 29 31 38 39 38 34 30 30 28 28 30 31 32 33 34 36 35 35 35 35 35 35 35 36 35 35 35 35 35 34 33 33
26 23 23 21 28 28 29 31 29 28 29 30 31 38 40 38 33 31 30 29 28 29 30 31 31 32 34 34 35 34 36 35 36 36 35 35 34 34 33 33 33 33 33 34
28 24 19 29 32 33 31 32 35 33 32 34 36 38 41 37 32 31 29 29 30 30 30 31 31 32 33 33 35 35 35 36 36 36 35 34 33 33 34 34 33 33 34 34
26 24 24 26 34 30 31 33 36 37 37 37 37 39 40 36 33 32 32 32 32 31 31 32 33 34 33 35 35 36 36 36 36 36 35 35 34 34 33 28 26 24 23 24
25 24 22 27 33 29 37 37 36 36 37 37 38 37 36 35 34 34 33 33 32 32 33 34 35 34 33 34 36 36 36 35 36 34 31 27 26 21 19 14 13 13 13 14
25 25 28 31 34 34 36 37 38 37 37 37 40 37 36 35 34 33 33 33 33 34 34 35 36 36 35 35 36 35 33 30 22 16 17 18 20 19 14 11 8 6 8 12
28 29 29 28 32 35 37 37 37 37 37 37 39 39 36 35 34 34 33 32 32 33 34 35 36 37 35 35 34 30 22 15 14 14 13 12 10 13 10 5 5 7 10 12
29 30 33 36 36 38 38 38 37 36 36 37 38 39 37 36 35 34 33 32 32 33 34 35 36 35 35 33 29 20 14 14 13 12 11 13 15 14 11 18 19 13 16 16
28 31 31 35 39 39 38 38 37 37 36 38 38 39 38 37 35 34 33 32 32 34 34 35 36 35 33 30 24 16 13 13 13 15 15 17 18 21 26 25 24 23 23 21
32 37 37 37 38 37 36 36 36 35 36 36 38 39 39 37 36 36 34 33 35 35 35 35 35 33 31 27 20 16 15 15 15 16 16 16 13 12 17 21 20 20 20 19
35 36 36 37 37 36 35 36 35 34 35 35 37 38 38 38 37 35 34 34 35 35 36 36 34 33 28 24 19 17 17 20 15 14 14 12 6 7 6 6 5 8 16 17
34 35 35 35 35 35 36 35 34 34 34 34 36 37 37 37 36 36 35 32 34 35 34 34 34 31 25 23 20 17 16 17 13 12 12 11 9 8 8 7 7 7 9 13
34 33 34 34 35 35 35 36 34 34 34 33 33 36 36 36 36 36 34 31 33 33 33 33 32 27 22 22 20 18 17 18 13 11 10 9 8 8 7 7 7 8 8 9
32 33 34 35 35 34 34 35 35 36 36 34 32 32 36 35 34 34 31 30 33 33 35 32 30 23 22 21 20 18 16 15 15 11 11 9 8 7 7 8 9 9 9 9
32 33 33 34 34 34 35 35 37 36 36 37 33 30 33 34 33 32 29 29 30 30 32 31 27 22 21 20 20 17 16 15 16 11 10 9 8 8 8 9 9 9 10 10
34 35 35 34 34 34 36 36 31 30 35 37 31 29 30 32 32 32 29 26 26 28 27 27 28 24 21 22 20 17 16 15 14 10 9 11 11 9 9 9 9 10 11 11
35 35 35 32 32 33 34 35 31 26 29 31 29 28 28 29 30 29 27 26 27 27 26 27 28 23 20 21 23 17 16 14 11 7 9 9 10 11 9 10 10 10 11 11
30 30 30 30 30 31 30 34 34 27 24 24 25 25 25 26 28 28 27 27 28 30 28 29 29 27 23 20 23 16 14 12 8 7 9 11 8 8 8 9 10 9 10 10
25 27 28 28 28 27 26 25 25 31 32 29 27 27 27 27 26 27 28 29 30 32 32 31 31 31 26 24 22 15 13 10 7 6 8 8 10 11 13 15 17 17 17 17
23 24 24 26 27 27 27 27 26 23 24 29 31 29 28 29 29 28 28 28 27 28 31 29 31 32 34 27 21 15 11 9 7 6 9 15 16 18 19 19 19 19 20 19
22 22 23 24 26 25 24 24 27 27 24 22 25 28 29 28 28 27 27 26 25 24 26 23 25 27 27 21 18 14 11 9 10 14 11 15 20 20 20 19 19 19 18 17
22 23 23 24 20 20 20 21 24 28 28 26 25 23 22 26 27 28 25 23 25 26 25 26 27 28 25 21 18 13 11 14 18 17 14 19 20 20 20 19 19 18 18 18
18 15 16 17 18 18 17 20 21 23 25 25 27 27 25 22 22 22 22 23 24 28 27 23 25 26 25 22 21 15 12 12 14 16 17 18 20 21 20 18 18 18 17 18
19 19 17 16 16 15 18 21 21 20 22 22 23 25 27 26 22 22 22 21 22 24 26 23 23 25 25 22 21 16 13 14 16 17 19 20 21 22 18 18 18 18 18 17
Lifted_Index
4 4 4 4 4 4 4 3 3 4 4 5 5 5 5 4 5 5 5 6 7 8 8 9 9 10 10 10 10 10 10 10 10 10 10 9 9 8 8 8 8 7 6 6
3 4 4 3 4 4 4 4 4 4 4 5 5 5 4 4 4 5 5 6 7 8 8 9 9 9 10 10 10 11 10 10 10 10 10 9 9 9 8 8 9 8 8 8
3 3 3 3 3 4 4 4 4 4 4 5 4 4 4 4 4 5 5 6 7 7 8 9 9 9 9 10 10 10 10 10 10 10 10 10 10 10 10 10 10 10 10 10
2 2 2 3 3 3 4 4 4 4 4 4 4 4 4 4 4 5 5 6 7 8 8 9 9 10 10 10 10 10 10 10 10 10 11 11 11 11 12 12 12 12 12 12
2 2 2 3 3 3 3 3 4 4 3 3 3 3 3 4 5 5 5 6 7 8 9 9 10 10 10 10 10 9 9 10 11 11 12 12 13 13 13 13 13 13 13 13
3 2 2 3 3 2 2 2 2 2 2 2 2 2 3 4 4 5 5 6 7 8 9 9 10 10 10 10 9 10 10 11 12 12 13 13 13 14 15 15 15 15 15 15
3 2 3 3 3 2 2 2 2 2 2 2 2 2 3 3 4 4 5 6 7 8 8 9 10 10 10 9 10 10 11 12 12 13 14 15 15 16 17 17 17 17 17 17
3 3 3 4 3 2 2 2 2 2 2 2 2 2 2 3 3 4 5 6 7 7 7 9 10 10 9 9 10 11 12 12 13 15 16 17 17 18 18 18 18 18 17 17
3 3 4 4 3 3 2 2 2 2 2 2 2 2 2 2 3 3 4 5 6 6 7 8 9 9 9 10 11 12 13 14 16 17 18 18 19 18 18 18 17 17 17 16
3 3 3 3 3 3 3 3 2 2 2 2 2 2 2 2 3 3 4 5 6 6 6 7 8 9 10 10 11 13 14 16 17 18 18 18 19 18 18 18 17 17 17 16
2 2 3 3 3 3 3 3 3 3 3 3 2 2 2 3 3 3 3 5 5 6 6 7 8 9 10 11 13 14 16 17 17 17 18 18 18 18 18 19 18 18 18 18
2 2 2 3 3 3 3 3 3 3 3 3 3 3 3 3 3 3 3 4 5 6 6 7 8 9 10 12 14 15 16 16 17 17 17 17 17 17 18 19 19 19 19 19
2 2 3 3 3 3 3 3 3 3 3 3 3 3 3 3 3 3 3 4 5 6 7 7 8 9 11 13 15 16 16 16 16 17 17 17 17 17 17 18 18 19 20 20
3 3 3 3 3 4 4 4 3 3 3 3 3 3 3 3 3 3 4 4 5 6 7 8 9 10 12 13 14 15 16 16 16 17 17 17 17 17 17 16 16 17 19 19
4 3 3 3 3 4 4 4 4 4 3 3 3 3 3 3 4 4 4 4 5 6 7 8 9 10 12 13 14 15 16 16 16 16 17 17 17 17 17 16 16 16 17 18
4 4 4 4 3 4 4 4 4 4 4 4 4 3 3 4 4 4 5 5 5 5 6 7 9 10 12 12 13 14 15 16 16 16 17 17 17 17 17 16 16 16 17 18
4 4 4 4 4 4 5 5 5 5 5 5 4 4 3 4 4 4 5 5 5 5 6 7 9 10 11 12 13 13 15 16 16 16 16 17 17 17 17 17 16 17 17 18
5 5 5 5 5 5 5 5 5 5 5 5 5 4 3 3 4 4 5 5 5 6 6 8 9 10 11 12 12 13 14 15 16 16 16 17 17 17 17 17 17 17 17 18
5 5 5 5 4 5 5 5 5 5 5 5 5 4 4 4 4 4 5 5 5 5 7 8 9 10 11 12 12 12 13 14 15 16 16 16 16 17 17 17 17 17 17 18
4 5 5 4 4 4 4 5 5 5 5 5 5 5 4 4 4 5 5 5 5 6 7 8 9 9 11 12 12 12 12 13 14 15 16 16 16 16 16 17 17 17 17 17
5 5 5 5 5 5 5 5 5 4 5 5 5 5 4 4 5 5 4 5 6 8 9 9 9 9 10 11 11 12 12 13 14 15 15 15 16 16 16 16 17 17 17 17
6 6 6 6 6 7 7 6 6 5 5 5 4 4 4 4 5 5 5 5 7 8 9 9 9 9 9 10 10 11 12 12 13 14 15 15 15 16 16 16 16 17 17 17
6 6 7 7 8 9 9 9 8 7 7 6 5 5 5 5 5 5 5 6 7 8 8 8 9 9 10 10 10 11 12 12 13 14 15 15 15 16 16 16 16 17 17 17
6 6 7 8 9 10 10 11 11 11 10 9 8 7 6 6 6 6 7 7 7 7 8 9 9 10 10 11 11 12 12 12 13 14 15 15 15 16 16 16 16 17 17 17
7 7 9 10 11 12 12 13 13 13 13 12 11 10 9 8 8 8 8 8 8 7 8 9 10 10 11 11 11 11 12 12 13 14 14 15 15 15 15 15 16 16 17 17
9 10 12 13 13 14 14 14 14 14 14 14 14 13 12 11 10 9 9 9 8 8 8 9 10 10 11 11 12 12 12 13 13 14 15 15 15 15 15 15 15 16 17 17
11 12 13 14 14 15 15 14 14 14 14 14 14 15 14 13 12 11 10 9 9 9 9 10 10 11 11 12 12 12 13 13 14 15 15 15 15 15 15 14 15 16 17 17